Content
SEND FEEDBACK

Daily
Averages
Monthly
Summary
United States of America

GORDON, WISCONSIN


Home > North America > United States > Wisconsin
Elevation: 325 meters     Latitude: 46 15N     Longitude: 091 48W

WEATHER
 
SELECT A DAY
Number of Records: 207,253;   Date Range: 7/1/96 - 8/30/14
 
SHARE

PRINT THIS DATA

[ ← Previous Day ]
WEATHER ALMANAC - 23 JANUARY, 2013
[ Next Day → ]
[ °F ]   °C
Weather ElementAverageHighLow
Temperature-18 °C-12.2 °C (11:53 am)-26.1 °C (1:53 am)
Dewpoint-22.4 °C-17.2 °C (12:53 pm)-29.4 °C (1:53 am)
Humidity69.9 %85 % (9:44 am)50 % (3:53 pm)
Barometer1022.7 hPa1037.6 hPa (11:53 pm)1017.6 hPa (12:07 pm)
Wind Speed6.3 km/h16.7 km/h (1:44 pm)
Wind Gust37 km/h (2:48 pm)
Weather ElementAverage
Visibility8.7 km
Wind DirectionENE (82.1 °)

Weather ElementTotal
Precipitation---
Heating Degree Days37.5 (Base 18.3)
Averaged from 53 records on 23 January, 2013
WEATHER CONDITIONS BREAKOUT
WIND DIRECTION BREAKOUT
WEATHER BY HOUR - 23 JANUARY, 2013
[ °F ]   °C
Local TimeTemperatureDewpointHumidityBarometerVisibilityWind DirectionWind SpeedGust SpeedPrecipitationEventsConditions
1:53 AM-26.1 °C-29.4 °C75 %1025.1 hPa16.1 kmCalmOvercast
2:53 AM-25 °C-28.3 °C75 %1025.1 hPa16.1 kmCalmOvercast
3:53 AM-24.4 °C-27.8 °C74 %1024.4 hPa16.1 kmCalmOvercast
4:53 AM-23.9 °C-27.2 °C75 %1024 hPa11.3 kmCalmOvercast
5:53 AM-23.9 °C-27.2 °C75 %1023.7 hPa8 kmCalm0 mmSnowLight Snow
6:15 AM-23 °C-27 °C71 %1019 hPa4 kmCalm0 mmHaze
6:25 AM-23 °C-27 °C71 %1019 hPa8 kmCalm0 mmHaze
6:53 AM-23.3 °C-26.7 °C74 %1023 hPa8 kmCalm0 mmHaze
7:53 AM-22.2 °C-25 °C79 %1022.7 hPa4.8 kmCalmHaze
8:13 AM-21 °C-24 °C77 %1018.3 hPa3.2 kmCalm0 mmSnowLight Snow
8:24 AM-21 °C-24 °C77 %1018.3 hPa2.4 kmCalm0 mmSnowLight Snow
8:35 AM-20 °C-23 °C78 %1018.3 hPa1.9 kmCalm0 mmSnowLight Snow
8:53 AM-19.4 °C-22.2 °C79 %1022.4 hPa2.4 kmCalm0 mmSnowLight Snow
8:59 AM-19 °C-22 °C78 %1018.3 hPa3.2 kmCalm0 mmSnowLight Snow
9:03 AM-18 °C-21 °C78 %1018.3 hPa4.8 kmCalm0 mmHaze
9:13 AM-18 °C-21 °C78 %1018.3 hPa2.9 kmSW (230°)5.6 km/h0 mmSnowLight Snow
9:21 AM-18 °C-21 °C78 %1018.6 hPa4.8 kmSW (230°)5.6 km/h0 mmHaze
9:34 AM-17 °C-20 °C78 %1018.3 hPa2.9 kmVariable5.6 km/h0 mmHaze
9:44 AM-17 °C-19 °C85 %1018.3 hPa1.6 kmCalm0 mmSnowLight Snow
9:53 AM-16.1 °C-18.9 °C80 %1022 hPa1.3 kmCalm0 mmSnowLight Snow
10:05 AM-16 °C-19 °C78 %1018.3 hPa1.6 kmVariable7.4 km/h0 mmSnowLight Snow
10:14 AM-16 °C-18 °C85 %1018.3 hPa2.4 kmWSW (250°)7.4 km/h0 mmHaze
10:29 AM-15 °C-18 °C78 %1018.3 hPa4 kmVariable7.4 km/h0 mmHaze
10:37 AM-15 °C-18 °C78 %1018.3 hPa4.8 kmVariable5.6 km/h0 mmHaze
10:53 AM-13.9 °C-17.8 °C73 %1022 hPa6.4 kmWest (270°)13 km/h0 mmHaze
11:32 AM-13 °C-18 °C67 %1017.9 hPa9.7 kmWest (270°)11.1 km/h0 mmHaze
11:53 AM-12.2 °C-17.8 °C64 %1021.7 hPa16.1 kmWNW (290°)14.8 km/h0 mmOvercast
12:07 PM-13 °C-19 °C62 %1017.6 hPa16.1 kmWNW (290°)13 km/hOvercast
12:37 PM-13 °C-18 °C67 %1017.9 hPa2.9 kmWNW (300°)13 km/h27.8 km/h0 mmSnowLight Snow
12:50 PM-13 °C-18 °C67 %1017.9 hPa1.3 kmVariable7.4 km/h27.8 km/h0 mmSnowLight Snow
12:53 PM-12.8 °C-17.2 °C70 %1021.7 hPa0.8 kmVariable9.3 km/h0 mmSnowSnow
1:16 PM-13 °C-18 °C67 %1018.3 hPa1.9 kmNW (310°)14.8 km/h35.2 km/h0 mmSnowLight Snow
1:18 PM-13 °C-18 °C67 %1018.3 hPa4.8 kmVariable11.1 km/h35.2 km/h0 mmSnowLight Snow
1:35 PM-13 °C-18 °C67 %1018.3 hPa4 kmVariable9.3 km/h0 mmSnowLight Snow
1:44 PM-13 °C-20 °C57 %1018.3 hPa6.4 kmWNW (290°)16.7 km/h31.5 km/h0 mmSnowLight Snow
1:53 PM-13.3 °C-19.4 °C61 %1022.4 hPa4 kmVariable11.1 km/h0 mmSnowLight Snow
2:01 PM-13 °C-18 °C67 %1018.6 hPa2.4 kmVariable11.1 km/h0 mmSnowLight Snow
2:36 PM-14 °C-21 °C56 %1020 hPa4.8 kmNNW (330°)14.8 km/h33.3 km/h0 mmSnowLight Snow
2:48 PM-14 °C-22 °C52 %1020.3 hPa16.1 kmNW (320°)16.7 km/h37 km/h0 mmMostly Cloudy
2:53 PM-13.9 °C-22.2 °C51 %1024.4 hPa16.1 kmVariable9.3 km/h37 km/h0 mmMostly Cloudy
3:53 PM-16.1 °C-24.4 °C50 %1027.1 hPa16.1 kmVariable11.1 km/h35.2 km/h0 mmOvercast
4:21 PM-18 °C-26 °C51 %1024.4 hPa16.1 kmNW (310°)13 km/h31.5 km/hMostly Cloudy
4:36 PM-18 °C-26 °C51 %1025.1 hPa16.1 kmNW (320°)13 km/hOvercast
4:53 PM-18.3 °C-25.6 °C54 %1029.8 hPa16.1 kmVariable9.3 km/hOvercast
5:36 PM-19 °C-26 °C55 %1027.1 hPa16.1 kmVariable9.3 km/hMostly Cloudy
5:53 PM-19.4 °C-25 °C62 %1031.5 hPa12.9 kmVariable9.3 km/hOvercast
6:42 PM-21 °C-25 °C71 %1029.1 hPa16.1 kmVariable9.3 km/hScattered Clouds
6:53 PM-20.6 °C-25 °C69 %1033.5 hPa16.1 kmVariable9.3 km/hPartly Cloudy
7:53 PM-21.1 °C-25 °C72 %1034.2 hPa16.1 kmNNW (340°)7.4 km/hClear
8:53 PM-21.7 °C-25 °C75 %1034.9 hPa16.1 kmCalmClear
9:53 PM-21.7 °C-25.6 °C72 %1035.2 hPa16.1 kmCalmClear
10:53 PM-22.8 °C-26.1 °C75 %1036.6 hPa16.1 kmCalmClear
11:53 PM-25 °C-27.8 °C78 %1037.6 hPa16.1 kmCalmClear
Hourly data recorded from KHYR, located 0 kilometers away from Gordon, Wisconsin







STORIES FROM OUR PARTNERS